Powrót do katalogu

STARLINK-11166

AktywnyŁącznośćVLEO
NORAD 60062·PAYLOAD·🇺🇸 United States

Wystrzelony Jun 19, 2024 z Vandenberg Space Force Base

Loading…

Następne Przeloty (najbliższe 24 godziny)

TLE

ŚwieżeSource: CelesTrak SupGP

Epoka: Sep 14, 2026, 14:29 UTC

1 60062C 24113D   26257.60395833  .00037667  00000+0  31035-3 0  2574
2 60062  53.1567 339.8950 0001256  78.7001 254.1734 15.69684678    14

Śledź STARLINK-11166 w czasie rzeczywistym z AllMySat

Download on the App Store